Location: Berkeley
(37.8716°N, 122.2727°W)
Time: 19:20:36
(UTC-07:00)

ACS3 Solar Sail - Pass Details

Date: 17 May 2026
Orbit: 875 x 955 km, 97.2° (Epoch: 9 June)

Event Time Altitude Azimuth Distance (km) Brightness Sun altitude
Rises 01:30:50 0° 16° (NNE) 3,481 5.8 -32.5°
Reaches altitude 10° 01:33:18 10° 21° (NNE) 2,535 4.8 -32.4°
Enters shadow 01:37:44 47° 60° (ENE) 1,145 2.3 -32.3°
